{"data":{"norad_id":62117,"epoch":"2026-09-19T23:28:17.823648Z","epoch_age_seconds":227401,"freshness":"STALE","line1":"1 62117U 24222D   26262.97798407  .00012754  00000+0  47196-3 0  9996","line2":"2 62117  43.0049 115.3026 0001096 272.5006  87.5720 15.27596692102504","mean_motion":15.27596692,"eccentricity":0.0001096,"inclination_deg":43.0049,"raan_deg":115.3026,"arg_perigee_deg":272.5006,"mean_anomaly_deg":87.572,"bstar":0.00047196,"rev_number":10250,"period_min":94.265718663916,"perigee_km":482.2471341237,"apogee_km":483.75109516003,"semimajor_km":6861.1361146419,"source":"CELESTRAK","updated_at":"2026-09-22T09:00:49.524247Z"}}